Location: Beugnon
(47.6222°N, 3.7850°E)
Time: 07:51:20
(UTC+00:00)

Okean 3 Rocket - Pass Details

Date: 09 April 2020
Orbit: 616 x 644 km, 82.5° (Epoch: 02 June)

Event Time Altitude Azimuth Distance (km) Brightness Sun altitude
Rises 20:48:04 0° 354° (N) 2,915 7.7 -21.9°
Reaches altitude 10° 20:50:21 10° 358° (N) 2,007 6.7 -22.2°
Enters shadow 20:54:36 56° 70° (ENE) 752 3.7 -22.7°
